Regional Weather Roundup
Issued by NWS San Diego, CA

Home | Current Version | Previous Version | Text Only | Print | Product List | Glossary On
Versions: 1 2 3 4 5 6 7 8 9 10 11 12 13 14 15 16 17 18 19 20 21 22 23 24 25 26 27 28 29 30 31 32 33 34 35 36 37 38 39 40 41 42 43 44 45 46 47 48 49 50
000
ASUS46 KSGX 230910
RWRSGX

SAN DIEGO HOURLY WEATHER ROUNDUP
NATIONAL WEATHER SERVICE SAN DIEGO CA
200 AM PDT WED APR 23 2014

NOTE: "FAIR" INDICATES FEW OR NO CLOUDS BELOW 12,000 FEET WITH NO
SIGNIFICANT WEATHER AND/OR OBSTRUCTIONS TO VISIBILITY.

CAZ042-043-060-061-PZZ750-775-231000-

GREATER SAN DIEGO AREA

CITY           SKY/WX    TMP DP  RH WIND       PRES   REMARKS
LINDBERGH FLD  PTCLDY    61  50  67 S6        29.96F
NATIONAL CITY    N/A     58  52  79 CALM      29.96S
CHULA VISTA      N/A     55  51  85 CALM      29.90S
IMPERIAL BEACH CLOUDY    54  50  86 SE3       29.96S
BROWN FIELD    CLEAR     54  48  80 S3        29.95S
MIRAMAR MCAS   PTCLDY    52  46  80 SE3       29.94F
MONTGOMERY FLD CLEAR     54  49  83 SE3       29.95S

$$

NORTH SAN DIEGO COUNTY

CITY           SKY/WX    TMP DP  RH WIND       PRES   REMARKS
CAMP PENDLETON CLEAR     50  46  86 CALM      29.94F FOG
RED BEACH      FAIR      56  49  77 E7        29.93F
OCEANSIDE AP   CLEAR     50  48  93 CALM      29.93F
VISTA            N/A     53  50  89 CALM      29.92F
CARLSBAD       CLEAR     57  50  77 SE3       29.93F
DEL MAR          N/A     55  52  88 CALM      29.95F
FALLBROOK        N/A     54  54 100 CALM      29.94F
ESCONDIDO        N/A     56  51  84 SE1       29.95F
SAN MARCOS       N/A     55  50  84 CALM      29.93S
POWAY            N/A     51  47  86 CALM      29.96F
R. PENASQUITOS   N/A     55  50  84 CALM      29.95F

$$

EAST SAN DIEGO COUNTY

CITY           SKY/WX    TMP DP  RH WIND       PRES   REMARKS
RAMONA         CLEAR     45  42  89 CALM      29.95S
GILLESPIE FLD  FAIR      55  48  76 SE5       29.97S
LA MESA          N/A     56  51  85 CALM      29.89F
JAMUL            N/A     49  46  90 CALM      29.94S
DESCANSO N       N/A     44  41  90 CALM      29.82S
MT. LAGUNA OBS   N/A     42  30  62 W13       29.57
CAMPO            N/A     44  42  93 W5        29.91F

$$

ORANGE COUNTY AND THE LOS ANGELES BASIN

CITY           SKY/WX    TMP DP  RH WIND       PRES   REMARKS
JOHN WAYNE AP  PTCLDY    59  50  72 CALM      29.94S
LAGUNA BEACH     N/A     52  48  86 NW1       29.92F
LAKE FOREST FR   N/A     53  47  79 CALM      29.84F
SANTA ANA        N/A     57  52  84 CALM      29.89F
HUNTINGTON BCH   N/A     55  53  92 CALM      29.95S
LOS ALAMITOS   FAIR      57  53  85 SE3       29.93F
FULLERTON      PTCLDY    59  51  75 SE3       29.93S
LONG BEACH     PTCLDY    58  49  72 SE6       29.93S
L.A. AP        MOCLDY    57  48  72 E5        29.94R
L.A. DOWNTOWN  PTCLDY    59  48  67 VRB3      29.94R

$$

THE INLAND EMPIRE

CITY           SKY/WX    TMP DP  RH WIND       PRES   REMARKS
CORONA         PTCLDY    47  43  86 CALM      29.94F
CHINO          PTCLDY    52  47  83 CALM      29.95F
ONTARIO        PTCLDY    55  48  77 NW3       29.93F
RIVERSIDE AP   PTCLDY    56  49  77 CALM      29.94S
RIV CYN CREST    N/A     56  55  99 S2        29.90F
MORENO VALLEY    N/A     54  53  95 CALM      28.04S
MARCH ARB      PTCLDY    52  48  87 E3        29.94F
HORSETHIEF CYN   N/A     51  43  75 S3        29.94F
PERRIS           N/A     52  51  95 S3          N/A
MENIFEE          N/A     53  51  93 SW1       29.98F
HEMET EAST       N/A     49  44  83 CALM      29.93F
FRENCH VALLEY  NOT AVBL
TEMECULA         N/A     53  50  90 CALM      29.92S

$$

SAN BERNARDINO AND RIVERSIDE COUNTY MOUNTAINS

CITY           SKY/WX    TMP DP  RH WIND       PRES   REMARKS
BIG BEAR AP    PTCLDY    39  -2  17 W18       29.98F WCI  30
BIG BEAR SHEA    N/A     39  -2  17 NW1       29.88S
ANGELUS OAKS     N/A     42  12  29 CALM      29.79F
PINE COVE        N/A     42  17  36 N5        29.85F

$$

SOUTHERN DESERT INCLUDING THE COACHELLA VALLEY

CITY           SKY/WX    TMP DP  RH WIND       PRES   REMARKS
PALM SPRINGS   CLEAR     66  43  43 CALM      29.76F
THOUSAND PALMS   N/A     64  48  56 N13       29.73S
PALM DESERT      N/A     64  48  55 CALM      31.33S
THERMAL        CLEAR     68  45  43 NW18G26   29.73S
BLYTHE         CLEAR     63  30  28 SE5       29.76R
IMPERIAL AP    CLEAR     64  35  34 W9        29.75F
EL CENTRO NAS  CLEAR     67  33  28 W18       29.76S
YUMA AZ        CLEAR     65  32  29 W10       29.75F

$$

UPPER DESERT

CITY           SKY/WX    TMP DP  RH WIND       PRES   REMARKS
VICTORVILLE AP   N/A     52  21  30 W17       29.94F
HESPERIA         N/A     48  27  43 CALM      30.00F
APPLE VALLEY     N/A     53  20  27 S6G21     30.02F
GRAY BUTTE AP  NOT AVBL
PALMDALE       MOCLDY    51  26  37 W28G37    29.96F
LANCASTER      MOCLDY    50  26  39 W28       29.93F
EDWARDS AFB    MOCLDY    52  21  28 SW15      29.91F
DAGGETT        PTCLDY    58  20  22 SW22G31   29.90S
29 PALMS N     PTCLDY    58  15  18 N12G18    29.93R HAZE
NEEDLES        PTCLDY    69  11  10 NW17      29.74S

$$

REGIONAL REPORTS

CITY           SKY/WX    TMP DP  RH WIND       PRES   REMARKS
SANTA BARBARA  CLEAR     60  34  37 N15       29.94F
SANDBERG       CLEAR     42  25  50 N9G20     30.02F
MT. WILSON       N/A     43   3  19 NW7G13      N/A
LAS VEGAS NV   MOCLDY    66   5   9 NW10      29.76R
PHOENIX AZ     PTCLDY    77  31  18 W18       29.72R
TIJUANA        CLEAR     55  46  71 S3        29.98
ENSENADA NW      N/A     57  32  38 N3        29.93F

$$

OFFSHORE ISLANDS

CITY           SKY/WX    TMP DP  RH WIND       PRES   REMARKS
CATALINA ARPT  CLEAR     52  46  80 SE3       29.95F
SAN NICOLAS IS CLEAR    N/A N/A N/A NW25G33   29.96S

$$

MARINE AND OFFSHORE BUOY REPORTS

STATION/POSITION SKY/WX   TEMP    WIND        PRES    SWELL
                          AIR SEA DIR/SP/G            HT/PER/DIR
                          (F)     (DEG/KT/KT) (MB)    (FT/S/D)
S CLEMENTE BASIN           59 62  310/ 17/ 21 1013.8F   7/300/ 9
SAN NICOLAS IS.               57                N/A     5/290/13
SO. S. ROSA ISLA           55 57  320/ 29/ 35 1015.0F   8/13
W. S. BARBARA CH           53 54  330/ 27/ 31 1015.7F   8/300/11
S. MONICA BASIN            60 61  300/ 10/ 12 1013.2F   7/270/13
S PEDRO CHANNEL               61                N/A     2/270/11
DANA POINT                    62                N/A     3/260/13
CMP PENDLETON NS              63                N/A     2/230/13
OCEANSIDE OFFSHR              63                N/A     2/220/13
TORREY PINES OTR              63                N/A     3/260/13
LA JOLLA 1                 58 62  150/  5/  6 1014.1F
MISSION BAY BUOY              62                N/A     3/310/13
SAN DIEGO BAY                 67              1014.4F
POINT LOMA SOUTH              64                N/A     3/260/13

$$




USA.gov is the U.S. government's official web portal to all federal, state and local government web resources and services.